Location: Newark
(23.3970°S, 47.6010°W)
Time: 14:42:48
(UTC+00:00)

Tiros 1 despin weight - Pass Details

Date: 18 February 2020
Orbit: 593 x 642 km, 48.2° (Epoch: 08 April)

Event Time Altitude Azimuth Distance (km) Brightness Sun altitude
Rises 00:37:01 0° 225° (SW) 2,945 ? -36.0°
Reaches altitude 10° 00:39:22 10° 225° (SW) 2,025 ? -36.4°
Enters shadow 00:40:35 18° 225° (SW) 1,563 ? -36.6°
Maximum altitude 00:44:03 89° 313° (NW) 632 - -37.3°
Drops below altitude 10° 00:48:36 10° 43° (NE) 1,976 - -38.1°
Sets 00:50:53 0° 43° (NE) 2,867 - -38.5°
